Simultaneous Nadir Overpasses (SNOs) Predictions

Prediction of SNOs between GOES-15 and FY3D Satellite Orbit:

Table of predicted SNOs for the next 14.0 days since TLE Epoch: 8/26/2022
Index Date Time (GOES-15) GOES-15 Lat,Lon FY3D Lat,Lon Distance(km) Time Diff (sec)
1 08/26/2022 22:11:49 -0.39,-127.98 0.39,-124.64 381.82 80
2 08/28/2022 10:34:05 0.38,-127.99 0.85,-130.00 229.00 80
3 08/29/2022 10:13:00 0.38,-127.98 -0.14,-125.54 277.54 80
4 08/30/2022 22:35:27 -0.38,-127.92 -1.04,-130.95 345.47 80
5 08/31/2022 22:19:42 -0.38,-127.90 -0.05,-126.49 161.43 80
6 09/02/2022 10:41:59 0.38,-127.92 1.24,-131.87 449.45 80
7 09/03/2022 10:20:54 0.38,-127.89 0.26,-127.40 56.16 80
8 09/05/2022 22:24:54 -0.36,-127.78 -0.49,-128.35 64.13 80
9 09/06/2022 22:09:09 -0.36,-127.76 0.50,-123.88 441.51 80
10 09/08/2022 10:31:26 0.35,-127.76 0.70,-129.26 170.45 80
11 09/09/2022 10:10:21 0.35,-127.73 -0.29,-124.79 334.66 80
